This demonstration page uses our WeatherBlox Daily Observations layout. Learn more.

Left ArrowRight Arrow

Hourly Observations for January 4, 2016

Temp ( °F °C ) Dew Point ( °F °C ) Humidity (%) Winds ( mph kmh ) Pressure ( in mb ) Visibility ( mi km ) Precip ( " mm )
12:59 am 00:59 Partly Cloudy 43 6.1 32 0 65 65 NNE 20 31 29.93 1014 10 16 0.00 0.00
1:59 am 01:59 Partly Cloudy 43 6.1 31 -0.6 63 63 N 21 33 29.94 1014 10 16 0.00 0.00
2:13 am 02:13 Mostly Cloudy 43 6.1 31 -0.6 63 63 NNE 18 30 29.94 1014 10 16 0.00 0.00
2:59 am 02:59 Cloudy 43 6.1 30 -1.1 60 60 N 15 24 29.95 1014 10 16 0.00 0.00
3:43 am 03:43 Mostly Cloudy 42 5.6 29 -1.7 60 60 N 21 33 29.94 1014 10 16 0.00 0.00
3:59 am 03:59 Partly Cloudy 41 5 29 -1.7 62 62 N 21 33 29.95 1014 10 16 0.00 0.00
4:59 am 04:59 Mostly Clear 40 4.4 28 -2.2 63 63 N 17 28 29.97 1015 10 16 0.00 0.00
5:59 am 05:59 Partly Cloudy 40 4.4 27 -2.8 60 60 N 14 22 29.98 1015 10 16 0.00 0.00
6:59 am 06:59 Mostly Cloudy 40 4.4 26 -3.3 58 58 N 21 33 30.00 1016 10 16 0.00 0.00
7:59 am 07:59 Mostly Cloudy 40 4.4 26 -3.3 58 58 N 16 26 30.02 1017 10 16 0.00 0.00
8:59 am 08:59 Cloudy 40 4.4 24 -4.4 53 53 NNW 18 30 30.04 1017 10 16 0.00 0.00
9:59 am 09:59 Mostly Cloudy 40 4.4 22 -5.6 49 49 N 21 33 30.06 1018 10 16 0.00 0.00
10:59 am 10:59 Mostly Cloudy 42 5.6 22 -5.6 45 45 NNW 22 35 30.06 1018 10 16 0.00 0.00
11:59 am 11:59 Mostly Cloudy 40 4.4 21 -6.1 47 47 NNW 17 28 30.05 1018 7 11 0.00 0.00
12:59 pm 12:59 Cloudy 39 3.9 23 -5 53 53 N 17 28 30.05 1018 7 11 0.00 0.00
1:59 pm 13:59 Mostly Cloudy 42 5.6 19 -7.2 40 40 NNW 21 33 30.06 1018 10 16 0.00 0.00
2:59 pm 14:59 Mostly Cloudy 39 3.9 18 -7.8 43 43 NNW 22 35 30.09 1019 10 16 0.00 0.00
3:59 pm 15:59 Mostly Cloudy 38 3.3 15 -9.4 39 39 NNW 18 30 30.11 1020 10 16 0.00 0.00
4:59 pm 16:59 Mostly Cloudy 38 3.3 15 -9.4 39 39 NNW 24 39 30.14 1021 10 16 0.00 0.00
5:59 pm 17:59 Mostly Cloudy 37 2.8 13 -10.6 37 37 N 20 31 30.18 1022 10 16 0.00 0.00
6:59 pm 18:59 Partly Cloudy 37 2.8 14 -10 39 39 NNW 26 43 30.21 1023 10 16 0.00 0.00
7:59 pm 19:59 Mostly Cloudy 34 1.1 9 -12.8 35 35 N 24 39 30.25 1025 10 16 0.00 0.00
8:59 pm 20:59 Partly Cloudy 33 0.6 10 -12.2 38 38 NNW 21 33 30.29 1026 10 16 0.00 0.00
9:59 pm 21:59 Partly Cloudy 32 0 9 -12.8 38 38 NNW 21 33 30.32 1027 10 16 0.00 0.00
10:59 pm 22:59 Partly Cloudy 32 0 10 -12.2 40 40 N 21 33 30.33 1027 10 16 0.00 0.00
11:59 pm 23:59 Partly Cloudy 31 -0.6 8 -13.3 38 38 NNW 24 39 30.35 1028 10 16 0.00 0.00

Powered by AerisWeather